• In Hungary
  • List of Countries
  • For 7 days
  • Water Temperature
  • Satellite Maps
  • Weather Map
  • News
  • Weather Widgets
  • user-avatar
    Login

    Hourly Weather Kugoty

    Today, 21 September, Friday

    Time Temperature Precipitation Wind Pressure Humidity
    00:00 0°C° 0.2 mm 8 mps 694 mmHg 90%
    01:00 0°C° 0 mm 7 mps 694 mmHg 90%
    02:00 +1°C° 0.2 mm 6 mps 695 mmHg 90%
    03:00 +1°C° 0.2 mm 6 mps 695 mmHg 90%
    04:00 +1°C° 0.2 mm 6 mps 695 mmHg 91%
    05:00 +1°C° 0.2 mm 5 mps 696 mmHg 91%
    06:00 +1°C° 0.2 mm 5 mps 696 mmHg 91%
    07:00 +1°C° 0.2 mm 5 mps 696 mmHg 91%
    08:00 +1°C° 0.2 mm 5 mps 697 mmHg 90%
    09:00 +2°C° 0.2 mm 5 mps 697 mmHg 90%
    10:00 +2°C° 0.2 mm 5 mps 698 mmHg 89%
    11:00 +3°C° 0.1 mm 5 mps 698 mmHg 88%
    12:00 +3°C° 0.1 mm 5 mps 698 mmHg 87%
    13:00 +5°C° 0 mm 6 mps 698 mmHg 72%
    14:00 +5°C° 0 mm 6 mps 699 mmHg 72%
    15:00 +6°C° 0 mm 5 mps 699 mmHg 72%
    16:00 +6°C° 0 mm 5 mps 699 mmHg 72%
    17:00 +5°C° 0 mm 4 mps 699 mmHg 76%
    18:00 +3°C° 0 mm 3 mps 699 mmHg 81%
    19:00 +3°C° 0 mm 2 mps 699 mmHg 85%
    20:00 +3°C° 0.1 mm 2 mps 700 mmHg 86%
    21:00 +3°C° 0.1 mm 2 mps 700 mmHg 88%
    22:00 +3°C° 0.1 mm 2 mps 700 mmHg 89%
    23:00 +3°C° 0.1 mm 2 mps 700 mmHg 90%

    Tomorrow, 22 September, Saturday

    Time Temperature Precipitation Wind Pressure Humidity
    00:00 +3°C° 0.1 mm 1 mps 700 mmHg 92%
    01:00 +3°C° 0.1 mm 1 mps 700 mmHg 94%
    02:00 +3°C° 0.1 mm 1 mps 701 mmHg 94%
    03:00 +3°C° 0.1 mm 1 mps 701 mmHg 94%
    04:00 +3°C° 0.1 mm 1 mps 701 mmHg 94%
    05:00 +3°C° 0 mm 1 mps 702 mmHg 93%
    06:00 +3°C° 0 mm 1 mps 702 mmHg 92%
    07:00 +4°C° 0 mm 1 mps 703 mmHg 90%
    08:00 +6°C° 0 mm 1 mps 703 mmHg 84%
    09:00 +8°C° 0 mm 1 mps 703 mmHg 78%
    10:00 +10°C° 0 mm 1 mps 703 mmHg 71%
    11:00 +10°C° 0 mm 2 mps 703 mmHg 68%
    12:00 +12°C° 0 mm 2 mps 703 mmHg 65%
    13:00 +11°C° 0 mm 3 mps 703 mmHg 62%
    14:00 +12°C° 0 mm 2 mps 703 mmHg 62%
    15:00 +12°C° 0 mm 2 mps 703 mmHg 63%
    16:00 +12°C° 0 mm 2 mps 703 mmHg 64%
    17:00 +10°C° 0 mm 1 mps 703 mmHg 70%
    18:00 +8°C° 0 mm 1 mps 703 mmHg 77%
    19:00 +6°C° 0 mm 1 mps 703 mmHg 83%
    20:00 +6°C° 0 mm 1 mps 703 mmHg 85%
    21:00 +5°C° 0 mm 1 mps 703 mmHg 86%
    22:00 +5°C° 0 mm 1 mps 703 mmHg 88%
    23:00 +4°C° 0 mm 1 mps 703 mmHg 88%

    Day after tomorrow, 23 September, Sunday

    Time Temperature Precipitation Wind Pressure Humidity
    00:00 +4°C° 0 mm 1 mps 703 mmHg 89%
    01:00 +4°C° 0 mm 1 mps 703 mmHg 90%
    02:00 +3°C° 0 mm 1 mps 703 mmHg 91%
    03:00 +3°C° 0 mm 1 mps 703 mmHg 91%
    04:00 +3°C° 0 mm 1 mps 703 mmHg 92%
    05:00 +3°C° 0 mm 1 mps 703 mmHg 90%
    06:00 +4°C° 0 mm 1 mps 703 mmHg 88%
    07:00 +5°C° 0 mm 1 mps 703 mmHg 85%
    08:00 +7°C° 0 mm 1 mps 703 mmHg 78%
    09:00 +9°C° 0 mm 1 mps 703 mmHg 71%
    10:00 +12°C° 0 mm 2 mps 703 mmHg 63%
    11:00 +13°C° 0 mm 2 mps 702 mmHg 60%
    12:00 +14°C° 0 mm 2 mps 702 mmHg 56%
    13:00 +15°C° 0 mm 2 mps 701 mmHg 52%
    14:00 +14°C° 0 mm 2 mps 701 mmHg 54%
    15:00 +14°C° 0 mm 2 mps 701 mmHg 56%
    16:00 +14°C° 0 mm 2 mps 701 mmHg 57%
    17:00 +12°C° 0 mm 2 mps 701 mmHg 67%
    18:00 +9°C° 0 mm 2 mps 700 mmHg 77%
    19:00 +7°C° 0 mm 1 mps 700 mmHg 86%
    20:00 +7°C° 0 mm 1 mps 700 mmHg 88%
    21:00 +6°C° 0 mm 1 mps 700 mmHg 90%
    22:00 +6°C° 0 mm 1 mps 700 mmHg 92%
    23:00 +5°C° 0 mm 1 mps 700 mmHg 93%

    24 September, Monday

    Time Temperature Precipitation Wind Pressure Humidity
    00:00 +5°C° 0 mm 1 mps 700 mmHg 94%
    01:00 +4°C° 0 mm 1 mps 700 mmHg 94%
    02:00 +4°C° 0 mm 1 mps 699 mmHg 94%
    03:00 +4°C° 0 mm 1 mps 699 mmHg 94%
    04:00 +3°C° 0 mm 1 mps 699 mmHg 94%
    05:00 +4°C° 0 mm 1 mps 699 mmHg 91%
    06:00 +4°C° 0 mm 1 mps 699 mmHg 88%
    07:00 +5°C° 0 mm 1 mps 699 mmHg 84%
    08:00 +7°C° 0 mm 1 mps 699 mmHg 77%
    09:00 +9°C° 0 mm 1 mps 698 mmHg 69%
    10:00 +11°C° 0 mm 1 mps 698 mmHg 62%
    11:00 +12°C° 0 mm 1 mps 698 mmHg 58%
    12:00 +13°C° 0 mm 1 mps 698 mmHg 55%
    13:00 +14°C° 0 mm 1 mps 697 mmHg 51%
    14:00 +14°C° 0 mm 1 mps 697 mmHg 53%
    15:00 +14°C° 0 mm 1 mps 697 mmHg 54%
    16:00 +14°C° 0 mm 1 mps 697 mmHg 56%
    17:00 +12°C° 0 mm 1 mps 697 mmHg 64%
    18:00 +10°C° 0 mm 1 mps 697 mmHg 72%
    19:00 +8°C° 0 mm 1 mps 697 mmHg 81%
    20:00 +8°C° 0 mm 1 mps 697 mmHg 82%
    21:00 +7°C° 0 mm 1 mps 697 mmHg 84%
    22:00 +7°C° 0 mm 1 mps 697 mmHg 86%
    23:00 +7°C° 0 mm 1 mps 697 mmHg 87%

    25 September, Tuesday

    Time Temperature Precipitation Wind Pressure Humidity
    00:00 +6°C° 0 mm 1 mps 696 mmHg 88%
    01:00 +6°C° 0 mm 1 mps 696 mmHg 89%
    02:00 +6°C° 0 mm 1 mps 696 mmHg 90%
    03:00 +5°C° 0 mm 1 mps 696 mmHg 91%
    04:00 +5°C° 0 mm 1 mps 696 mmHg 93%
    05:00 +6°C° 0 mm 1 mps 696 mmHg 90%
    06:00 +6°C° 0 mm 1 mps 696 mmHg 88%
    07:00 +7°C° 0 mm 1 mps 696 mmHg 86%
    08:00 +9°C° 0 mm 1 mps 696 mmHg 77%
    09:00 +12°C° 0 mm 1 mps 696 mmHg 68%
    10:00 +15°C° 0 mm 1 mps 696 mmHg 59%
    11:00 +16°C° 0 mm 1 mps 695 mmHg 55%
    12:00 +18°C° 0 mm 1 mps 695 mmHg 51%
    13:00 +19°C° 0 mm 1 mps 695 mmHg 46%
    14:00 +19°C° 0 mm 1 mps 694 mmHg 49%
    15:00 +18°C° 0 mm 1 mps 694 mmHg 52%
    16:00 +18°C° 0 mm 1 mps 694 mmHg 54%
    17:00 +15°C° 0 mm 1 mps 694 mmHg 61%
    18:00 +13°C° 0 mm 1 mps 694 mmHg 68%
    19:00 +11°C° 0 mm 1 mps 693 mmHg 75%
    20:00 +11°C° 0.1 mm 1 mps 693 mmHg 77%
    21:00 +11°C° 0.1 mm 1 mps 693 mmHg 79%
    22:00 +11°C° 0.1 mm 1 mps 693 mmHg 81%
    23:00 +10°C° 0.1 mm 1 mps 693 mmHg 83%

    26 September, Wednesday

    Time Temperature Precipitation Wind Pressure Humidity
    00:00 +10°C° 0.1 mm 1 mps 693 mmHg 86%
    01:00 +10°C° 0.1 mm 1 mps 693 mmHg 88%
    02:00 +9°C° 0 mm 1 mps 693 mmHg 89%
    03:00 +9°C° 0 mm 1 mps 693 mmHg 91%
    04:00 +9°C° 0 mm 1 mps 693 mmHg 93%
    05:00 +9°C° 0 mm 1 mps 693 mmHg 91%
    06:00 +9°C° 0 mm 1 mps 693 mmHg 90%
    07:00 +9°C° 0 mm 1 mps 693 mmHg 89%
    08:00 +11°C° 0 mm 1 mps 693 mmHg 83%
    09:00 +12°C° 0 mm 1 mps 693 mmHg 77%
    10:00 +14°C° 0 mm 1 mps 693 mmHg 71%
    11:00 +14°C° 0 mm 2 mps 693 mmHg 70%
    12:00 +14°C° 0 mm 2 mps 693 mmHg 70%
    13:00 +13°C° 0 mm 3 mps 693 mmHg 69%
    14:00 +13°C° 0 mm 3 mps 693 mmHg 71%
    15:00 +12°C° 0 mm 3 mps 693 mmHg 73%
    16:00 +12°C° 0 mm 3 mps 693 mmHg 74%
    17:00 +12°C° 0 mm 2 mps 694 mmHg 80%
    18:00 +9°C° 0 mm 2 mps 694 mmHg 86%
    19:00 +8°C° 0 mm 1 mps 694 mmHg 91%
    20:00 +8°C° 0 mm 1 mps 694 mmHg 93%
    21:00 +7°C° 0 mm 1 mps 694 mmHg 94%
    22:00 +7°C° 0 mm 1 mps 694 mmHg 95%
    23:00 +7°C° 0 mm 1 mps 694 mmHg 95%
    Show more